TimePDT,TemperatureF,Dew PointF,Humidity,Sea Level PressureIn,VisibilityMPH,Wind Direction,Wind SpeedMPH,Gust SpeedMPH,PrecipitationIn,Events,Conditions,WindDirDegrees,DateUTC
12:53 AM,53.1,48.9,86,30.14,6.0,Calm,Calm,-,N/A,,Mostly Cloudy,0,2013-06-22 07:53:00
1:20 AM,51.8,48.2,88,30.13,6.0,Calm,Calm,-,N/A,,Scattered Clouds,0,2013-06-22 08:20:00
1:53 AM,51.1,46.9,86,30.13,7.0,Calm,Calm,-,N/A,,Clear,0,2013-06-22 08:53:00
2:10 AM,51.8,48.2,88,30.12,2.5,Calm,Calm,-,N/A,,Partly Cloudy,0,2013-06-22 09:10:00
2:13 AM,51.8,46.4,82,30.12,1.2,Calm,Calm,-,N/A,,Scattered Clouds,0,2013-06-22 09:13:00
2:18 AM,51.8,46.4,82,30.12,0.8,Calm,Calm,-,N/A,,Mist,0,2013-06-22 09:18:00
2:21 AM,50.0,46.4,87,30.12,1.2,Calm,Calm,-,N/A,,Scattered Clouds,0,2013-06-22 09:21:00
2:24 AM,50.0,46.4,87,30.12,2.0,Calm,Calm,-,N/A,,Partly Cloudy,0,2013-06-22 09:24:00
2:32 AM,48.2,44.6,87,30.12,7.0,Calm,Calm,-,N/A,,Partly Cloudy,0,2013-06-22 09:32:00
2:53 AM,50.0,46.0,86,30.12,7.0,Calm,Calm,-,N/A,,Partly Cloudy,0,2013-06-22 09:53:00
2:59 AM,51.8,46.4,82,30.12,6.0,Calm,Calm,-,N/A,,Mostly Cloudy,0,2013-06-22 09:59:00
3:49 AM,51.8,46.4,82,30.11,7.0,Calm,Calm,-,N/A,,Overcast,0,2013-06-22 10:49:00
3:53 AM,51.1,46.9,86,30.11,7.0,Calm,Calm,-,N/A,,Overcast,0,2013-06-22 10:53:00
4:32 AM,50.0,46.4,87,30.10,2.5,Calm,Calm,-,N/A,,Scattered Clouds,0,2013-06-22 11:32:00
4:37 AM,48.2,46.4,93,30.10,1.2,NNE,3.5,-,N/A,,Mostly Cloudy,20,2013-06-22 11:37:00
4:43 AM,48.2,44.6,87,30.10,2.0,Calm,Calm,-,N/A,,Mostly Cloudy,0,2013-06-22 11:43:00
4:47 AM,48.2,44.6,87,30.10,4.0,Calm,Calm,-,N/A,,Scattered Clouds,0,2013-06-22 11:47:00
4:53 AM,48.0,44.1,86,30.10,7.0,Calm,Calm,-,N/A,,Scattered Clouds,0,2013-06-22 11:53:00
5:53 AM,48.0,44.1,86,30.09,6.0,Calm,Calm,-,N/A,,Clear,0,2013-06-22 12:53:00
6:20 AM,48.2,44.6,87,30.08,6.0,Calm,Calm,-,N/A,,Partly Cloudy,0,2013-06-22 13:20:00
6:33 AM,50.0,46.4,87,30.08,6.0,NE,4.6,-,N/A,,Mostly Cloudy,50,2013-06-22 13:33:00
6:53 AM,54.0,50.0,86,30.09,6.0,NE,3.5,-,N/A,,Overcast,50,2013-06-22 13:53:00
7:30 AM,55.4,51.8,88,30.08,6.0,East,3.5,-,N/A,,Overcast,80,2013-06-22 14:30:00
7:53 AM,55.9,52.0,87,30.07,5.0,ENE,3.5,-,N/A,,Overcast,60,2013-06-22 14:53:00
8:44 AM,59.0,53.6,82,30.07,6.0,NE,3.5,-,N/A,,Haze,50,2013-06-22 15:44:00
8:53 AM,59.0,53.1,81,30.07,6.0,Calm,Calm,-,N/A,,Haze,0,2013-06-22 15:53:00
9:39 AM,62.6,53.6,72,30.06,7.0,Calm,Calm,-,N/A,,Mostly Cloudy,0,2013-06-22 16:39:00
9:53 AM,64.0,54.0,70,30.05,7.0,Calm,Calm,-,N/A,,Mostly Cloudy,0,2013-06-22 16:53:00
10:24 AM,64.4,53.6,68,30.05,7.0,SW,3.5,-,N/A,,Partly Cloudy,220,2013-06-22 17:24:00
10:53 AM,68.0,53.1,59,30.04,7.0,Variable,6.9,-,N/A,,Clear,0,2013-06-22 17:53:00
11:53 AM,68.0,52.0,56,30.02,7.0,Variable,6.9,-,N/A,,Clear,0,2013-06-22 18:53:00
12:53 PM,69.1,54.0,58,30.01,7.0,WNW,8.1,-,N/A,,Clear,300,2013-06-22 19:53:00
1:53 PM,70.0,55.9,61,30.00,7.0,West,10.4,-,N/A,,Clear,260,2013-06-22 20:53:00
2:53 PM,71.1,55.0,57,29.98,7.0,West,6.9,-,N/A,,Clear,270,2013-06-22 21:53:00
3:53 PM,71.1,53.1,53,29.96,7.0,West,4.6,-,N/A,,Overcast,260,2013-06-22 22:53:00
4:53 PM,73.0,55.0,53,29.94,7.0,West,4.6,-,N/A,,Scattered Clouds,260,2013-06-22 23:53:00
5:53 PM,73.0,53.1,49,29.93,7.0,Variable,5.8,-,N/A,,Clear,0,2013-06-23 00:53:00
6:53 PM,73.0,52.0,48,29.90,7.0,SW,4.6,-,N/A,,Clear,220,2013-06-23 01:53:00
7:53 PM,71.1,48.9,45,29.89,7.0,Calm,Calm,-,N/A,,Clear,0,2013-06-23 02:53:00
8:53 PM,66.0,52.0,60,29.88,7.0,Calm,Calm,-,N/A,,Clear,0,2013-06-23 03:53:00
9:53 PM,62.1,52.0,70,29.87,8.0,Calm,Calm,-,N/A,,Clear,0,2013-06-23 04:53:00
10:53 PM,62.1,52.0,70,29.87,8.0,Calm,Calm,-,N/A,,Mostly Cloudy,0,2013-06-23 05:53:00
11:53 PM,60.1,53.1,78,29.86,8.0,Calm,Calm,-,N/A,,Mostly Cloudy,0,2013-06-23 06:53:00